Location: Lake Sonoma
(38.7200°N, 123.0564°W)
Time: 10:11:15
(UTC-07:00)

ISS - All Passes

Search period start: 01 October 2016 00:00
Search period end: 11 October 2016 00:00
Orbit: 400 x 409 km, 51.6° (Epoch: 02 October)

Date Brightness Start Highest point End Pass type
(mag) Time Alt. Az. Time Alt. Az. Time Alt. Az.
01 Oct - 01:31:55 10° NNW 01:34:52 30° NNE 01:37:48 10° E night (unlit)
01 Oct - 03:08:25 10° WNW 03:11:18 29° SW 03:14:11 10° SSE night (unlit)
01 Oct - 18:11:53 10° S 18:13:59 16° SE 18:16:05 10° E daylight
01 Oct - 19:47:03 10° WSW 19:50:12 47° NW 19:53:21 10° NE visible
01 Oct - 21:25:54 10° NW 21:27:19 12° NNW 21:28:43 10° N visible
02 Oct - 00:40:04 10° NNW 00:42:32 20° NNE 00:45:02 10° ENE night (unlit)
02 Oct - 02:16:02 10° WNW 02:19:16 60° SW 02:22:30 10° SE night (unlit)
02 Oct - 18:54:46 10° SW 18:58:01 88° SE 19:01:16 10° NE daylight
02 Oct - 20:32:44 10° WNW 20:34:53 16° NNW 20:37:02 10° NNE visible
02 Oct - 23:48:18 10° NNW 23:50:09 14° NNE 23:52:00 10° NE night (unlit)
03 Oct - 01:23:52 10° NW 01:27:08 67° NE 01:30:24 10° ESE night (unlit)
03 Oct - 03:02:04 10° WSW 03:03:13 11° SW 03:04:21 10° SSW night (unlit)
03 Oct - 18:02:50 10° SSW 18:05:55 41° SE 18:09:00 10° ENE daylight
03 Oct - 19:39:49 10° W 19:42:30 23° NNW 19:45:12 10° NNE visible
03 Oct - 22:56:41 10° N 22:57:41 11° NNE 22:58:38 10° NNE night (unlit)
04 Oct - 00:31:51 10° NW 00:34:54 36° NNE 00:37:58 10° E night (unlit)
04 Oct - 02:08:37 10° WNW 02:11:15 22° SW 02:13:53 10° S night (unlit)
04 Oct - 17:11:24 10° S 17:13:54 20° SE 17:16:23 10° E daylight
04 Oct - 18:47:08 10° WSW 18:50:11 37° NNW 18:53:16 10° NE daylight
04 Oct - 20:26:20 10° NNW 20:27:24 11° NNW 20:28:29 10° N visible
04 Oct - 23:39:55 10° NNW 23:42:35 22° NNE 23:45:15 10° E night (unlit)
05 Oct - 01:16:03 10° WNW 01:19:12 45° SW 01:22:21 10° SSE night (unlit)
05 Oct - 16:21:22 10° SE 16:21:55 10° SE 16:22:28 10° ESE daylight
05 Oct - 17:54:43 10° WSW 17:57:57 72° NW 18:01:12 10° NE daylight
05 Oct - 19:33:00 10° NW 19:34:55 14° NNW 19:36:48 10° NNE visible
05 Oct - 22:48:05 10° NNW 22:50:10 16° NNE 22:52:16 10° ENE night (unlit)
06 Oct - 00:23:47 10° NW 00:27:04 86° NE 00:30:20 10° SE night (unlit)
06 Oct - 17:02:37 10° SW 17:05:47 54° SE 17:08:58 10° ENE daylight
06 Oct - 18:39:57 10° WNW 18:42:28 20° NNW 18:44:59 10° NNE daylight
06 Oct - 21:56:21 10° N 21:57:41 12° NNE 21:59:00 10° NE visible
06 Oct - 23:31:40 10° NW 23:34:50 44° NE 23:37:58 10° ESE night (unlit)
07 Oct - 01:08:48 10° W 01:11:04 18° SW 01:13:21 10° S night (unlit)
07 Oct - 16:10:56 10° SSW 16:13:41 26° SE 16:16:28 10° ENE daylight
07 Oct - 17:47:09 10° W 17:50:06 31° NNW 17:53:03 10° NE daylight
07 Oct - 19:26:47 10° NNW 19:27:23 10° NNW 19:27:59 10° N visible
07 Oct - 22:39:40 10° NNW 22:42:30 26° NNE 22:45:19 10° E night (unlit)
08 Oct - 00:16:00 10° WNW 00:19:01 34° SW 00:22:01 10° SSE night (unlit)
08 Oct - 15:20:00 10° SSE 15:21:40 13° SE 15:23:19 10° E daylight
08 Oct - 16:54:36 10° WSW 16:57:47 56° NW 17:00:59 10° NE daylight
08 Oct - 18:33:12 10° NW 18:34:50 13° NNW 18:36:28 10° NNE daylight
08 Oct - 21:47:46 10° NNW 21:50:04 18° NNE 21:52:23 10° ENE visible
08 Oct - 23:23:36 10° NW 23:26:51 73° SW 23:30:07 10° SE night (unlit)
09 Oct - 16:02:19 10° SW 16:05:32 72° SE 16:08:48 10° NE daylight
09 Oct - 17:40:02 10° WNW 17:42:19 18° NNW 17:44:38 10° NNE daylight
09 Oct - 20:55:56 10° NNW 20:57:34 13° NNE 20:59:11 10° NE visible
09 Oct - 22:31:24 10° NW 22:34:37 55° NE 22:37:50 10° ESE night (unlit)
10 Oct - 00:09:00 10° W 00:10:45 14° SW 00:12:31 10° SSW night (unlit)
10 Oct - 15:10:26 10° SSW 15:13:23 33° SE 15:16:22 10° ENE daylight
10 Oct - 16:47:05 10° W 16:49:53 26° NNW 16:52:42 10° NNE daylight
10 Oct - 20:04:26 10° N 20:04:59 10° NNE 20:05:33 10° NNE visible
10 Oct - 21:39:20 10° NW 21:42:17 31° NNE 21:45:14 10° E visible
10 Oct - 23:15:53 10° WNW 23:18:42 27° SW 23:21:30 10° SSE night (unlit)
